Regional Weather Roundup
Issued by NWS

Home | Current Version | Previous Version | Text Only | Print | Product List | Glossary On
Versions: 1 2 3 4 5 6 7 8 9 10 11 12 13 14 15 16 17 18 19 20 21 22 23 24 25 26 27 28 29 30 31 32 33 34 35 36 37 38 39 40 41 42 43 44 45 46 47 48 49 50
000
ASUS44 KLUB 231710
RWRLUB
WEST TEXAS WEATHER ROUNDUP
NATIONAL WEATHER SERVICE LUBBOCK TX
1200 PM CDT MON OCT 23 2017

NOTE: "FAIR" INDICATES FEW OR NO CLOUDS BELOW 12,000 FEET WITH NO
SIGNIFICANT WEATHER AND/OR OBSTRUCTIONS TO VISIBILITY.

TXZ004-006>008-010-012-014-016-OKZ002-231800-
TEXAS PANHANDLE/OKLAHOMA PANHANDLE

CITY           SKY/WX    TMP DP  RH WIND       PRES   REMARKS
AMARILLO       CLOUDY    67  36  31 N25G32    30.26R
BORGER         CLOUDY    65  36  34 NE23G29   30.28R
CANADIAN       CLOUDY    67  38  34 NE18G31   30.23R
DALHART        CLOUDY    64  34  32 NE24G36   30.33R
DUMAS          CLOUDY    61  34  36 N22G30    30.30R
GUYMON         CLOUDY    62  37  39 N25G33    30.30R
HEREFORD       SUNNY     69  35  29 NE25G33   30.26R
PAMPA          CLOUDY    65  35  33 NE25G33   30.26R
PERRYTON       CLOUDY    64  37  36 N20G26    30.26R
$$

TXZ026-029-035-045-048-231800-
SOUTHERN PANHANDLE/SOUTH PLAINS/ROLLING PLAINS

CITY           SKY/WX    TMP DP  RH WIND       PRES   REMARKS
CHILDRESS      SUNNY     72  39  30 N17G24    30.15R
SEMINOLE       SUNNY     77  33  20 N9        30.18R
LUBBOCK        MOSUNNY   75  36  24 NE14      30.15S
PLAINVIEW      SUNNY     72  36  26 NE15G22   30.18R
SNYDER         SUNNY     66  39  36 SW10      30.15R
$$

TXZ052-054-060>062-072-078-127-140-154-169-231800-
PERMIAN BASIN/CONCHO VALLEY/BIG COUNTRY/EDWARDS PLATEAU

CITY           SKY/WX    TMP DP  RH WIND       PRES   REMARKS
ABILENE        SUNNY     70  47  43 SW14      30.13S
JUNCTION       SUNNY     74  46  36 SW14G21   30.15F
MIDLAND        SUNNY     75  38  26 SW9       30.15F
ODESSA         SUNNY     73  39  29 SW7       30.16
SAN ANGELO     SUNNY     76  44  32 SW17G23   30.14F
SONORA         SUNNY     75  52  43 S14       30.20F
SWEETWATER     SUNNY     72  43  34 SW15      30.16S
WINK           SUNNY     71  37  28 W3        30.16F
$$

TXZ055-058-074-075-080-082-231800-
FAR WEST/SOUTHWEST MOUNTAINS/TRANS PECOS

CITY           SKY/WX    TMP DP  RH WIND       PRES   REMARKS
ALPINE         SUNNY     78  24  13 W14       30.32S
DRYDEN           N/A     79  39  23 SW16G24   30.14F
EL PASO        SUNNY     69  28  21 SW3       30.30S
FORT STOCKTON  SUNNY     78  29  16 NW9       30.19R
GUADALUPE PASS SUNNY     66  23  19 SW20      30.33S
MARFA          SUNNY     75  22  13 W21G28    30.32S
PECOS          SUNNY     70  38  31 NW6       30.18F
PRESIDIO       FAIR      73  32  22 S3        30.26F
$$

TXZ014-016-019-021>030-083-231800
TEXAS TECH WEST TEXAS MESONET/TEXAS PANHANDLE/NORTHERN SOUTH PLAINS

CITY           SKY/WX    TMP DP  RH WIND       PRES   REMARKS
ABERNATHY 5ENE   N/A     73  36  25 NE13      30.18R
AMARILLO 9NNE    N/A     67  35  31 NE23      30.27R
AMARILLO 7SSE    N/A     68  35  30 N25       30.27R
AMHERST 1NE      N/A     74  35  24 N15       30.20R
BOOTLEG 11WNW    N/A     69  33  26 N30       30.31R
CANADIAN 6E      N/A     66  38  35 N28       30.20R
CAPROCK CYN SP   N/A     70  38  31 N9G21     30.20R
CHILDRESS 2NNE   N/A     72  39  30 N14       30.14F
CLARENDON 2WSW   N/A     71  35  27 N23       30.20R
CLAUDE 12SW      N/A     67  36  31 N20       30.24R
DIMMITT 2NE      N/A     68  35  30 N26       30.25R
FLOYDADA 2NNE    N/A     76  35  22 N16       30.17R
FRIONA 2NE       N/A     69  35  27 N30       30.27R
GOODLETT 3W      N/A     71  39  30 N13       30.13F
HART 3N          N/A     73  35  25 N22       30.22R
HEREFORD 2NW     N/A     67  32  27 NE23G32   30.25R
MCLEAN 1E        N/A     67  35  30 N18G29    30.20R
MEMPHIS 1NE      N/A     75  35  23 N24       30.16R
MULESHOE 2SSW    N/A     74  34  22 N15       30.21R
OLTON 6S         N/A     74  35  23 N17       30.20R
PALO DURO SP     N/A     67  35  31 NE18      30.26R
PAMPA 2E         N/A     63  37  38 N23       30.26R
PLAINVIEW 1S     N/A     74  37  26 NE16      30.19R
SILVERTON 7ESE   N/A     71  37  28 N23       30.20R
TULIA 2ENE       N/A     68  39  34 N24       30.24R
TURKEY 2WSW      N/A     72  39  30 N17       30.18R
UMBARGER 3NNE    N/A     66  37  35 N21       30.28R
$$

TXZ033>036-039>041-045>048-231800
TEXAS TECH WEST TEXAS MESONET/SOUTH PLAINS

CITY           SKY/WX    TMP DP  RH WIND       PRES   REMARKS
AIKEN 3WSW       N/A     73  37  26 NE16      30.21R
ANDREWS 2NE      N/A     77  30  18 NW7       30.17R
ANTON 6SSW       N/A     73  37  27 N14       30.18R
BROWNFIELD 2S    N/A     74  33  21 N14       30.16S
DENVR CTY 7WNW   N/A     75  31  19 N14       30.18S
GAIL 2ESE        N/A     70  38  30 W3        30.14S
LAMESA 2SE       N/A     70  39  32 NW5       30.16S
LUBBOCK 3WNW     N/A     74  35  24 NE8       30.16S
MORTON 1ENE      N/A     74  33  21 N9        30.20R
ODONNELL 1N      N/A     69  38  32 W2        30.15F
PLAINS 3N        N/A     76  30  18 N13       30.19S
RALLS 1SE        N/A     72  36  26 N12       30.16S
REESE CENTER     N/A     73  34  24 N13       30.17R
SEAGRAVES 1SW    N/A     76  35  22 N10G20    30.17S
SEMINOLE 2NNE    N/A     78  29  16 N10       30.16S
SLATON 2NE       N/A     72  35  25 N9        30.16R
SNYDER 3E        N/A     70  39  32 SW8       30.14S
SUNDOWN 8SW      N/A     76  33  20 N13       30.18S
TAHOKA 3NNE      N/A     74  34  22 N8        30.15S
WOLFFORTH 6SSW   N/A     73  33  22 N9        30.16S
$$

TXZ031-032-036>038-042>044-231800-
TEXAS TECH WEST TEXAS MESONET/ROLLING PLAINS

CITY           SKY/WX    TMP DP  RH WIND       PRES   REMARKS
ASPERMONT 3NE    N/A     74  38  27 W8        30.13R
FLUVANNA 3WNW    N/A     69  34  27 SW5       30.14S
GRAHAM 5SSW      N/A     68  40  35 NW6       30.15S
HASKELL 1NW      N/A     73  41  31 SW10      30.12R
JAYTON 1SSE      N/A     72  35  25 W7        30.13S
KNOX CITY 3NW    N/A     72  39  30 SW7       30.12F
LK A HENRY 1NW   N/A     72  35  25 W6        30.13S
ODELL 4ENE       N/A     68  45  42 NW7       30.14F
PADUCAH 10SW     N/A     72  42  33 N8        30.13R
POST 1NE         N/A     72  37  28 NW5       30.14S
RRING SPRGS 3N   N/A     71  41  33 N12       30.15R
SEYMOUR 3NW      N/A     70  44  38 W10       30.12S
SPUR 1W          N/A     71  39  31 CALM      30.12S
WEINERT 2NNE     N/A     72  44  35 W12       30.12F
WHITE RVR 6NE    N/A     74  38  27 N8        30.14R
$$

TXZ052-054-060>062-072-078-127-140-154-169-231800-
TEXAS TECH WEST TEXAS MESONET/PERMIAN BASIN/
CONCHO VALLEY/BIG COUNTRY/EDWARDS PLATEAU

CITY           SKY/WX    TMP DP  RH WIND       PRES   REMARKS
COYANOSA 2N      N/A     73  37  27 NW10      30.18S
JUNCTION 1SSW    N/A     74  48  39 SW9       30.16F
MERTZON 3NNE     N/A     77  47  34 SW9       30.15F
SAN ANGELO 7NW   N/A     76  41  28 SW13      30.13F
STRLNG CT 4WSW   N/A     76  42  29 SW9       30.14F
ST LAWRNCE 5SW   N/A     74  38  27 SW12      30.15F
SWEETWATR 11SW   N/A     72  45  38 SW16      30.15S
WALL 1E          N/A     75  47  37 SW15      30.15F
$$

TXZ055-058-074-075-080-082-231800-
TEXAS TECH WEST TEXAS MESONET/FAR WEST/SOUTHWEST MOUNTAINS/TRANS PECOS

CITY           SKY/WX    TMP DP  RH WIND       PRES   REMARKS
PRSMN GAP BBNP   N/A     76  35  22 S9        30.21F
GUADLPE MTN NP   N/A     71  22  16 S9        30.33S
$$




USA.gov is the U.S. government's official web portal to all federal, state and local government web resources and services.